Theta_e
316 314 315 318 317 317 317 320 323 322 318 322 322 318 315 315 320 322 325 328 330 329 327 334 336 337 337 337 337 336 335 332 330 328 329 332 333 333 332 332 332 333 333 333
315 318 315 315 317 317 317 318 318 318 317 319 319 318 316 314 315 318 322 327 329 328 328 329 332 335 336 337 337 336 336 335 333 332 332 334 334 333 333 333 333 333 334 334
313 316 314 315 317 319 319 318 317 318 316 314 314 316 317 316 316 315 315 316 315 324 328 327 329 331 333 333 333 334 335 336 335 335 335 335 334 334 333 332 333 333 334 333
311 315 315 315 316 317 321 316 315 316 316 315 313 323 312 310 313 308 306 305 306 305 305 313 320 325 324 320 321 325 328 331 333 335 336 336 334 333 333 333 332 332 333 332
309 314 315 315 314 316 317 316 315 316 317 313 311 313 314 308 307 305 306 307 306 305 304 304 307 312 314 314 315 317 319 324 327 329 331 332 332 332 331 329 330 331 331 330
311 310 311 311 312 313 314 316 316 316 318 321 316 313 315 312 308 307 305 304 306 306 306 306 307 311 312 313 313 313 313 313 315 319 323 326 326 326 324 323 322 320 320 321
311 310 310 310 312 312 312 316 316 315 317 322 314 317 313 308 305 305 305 305 304 307 308 308 307 307 309 310 311 312 312 312 311 311 312 312 314 314 314 313 314 315 317 319
310 308 311 311 312 313 314 314 314 317 319 317 310 322 313 306 306 306 306 306 306 308 308 309 309 309 309 309 310 310 311 310 310 311 311 311 311 312 313 313 313 315 317 319
316 312 310 310 310 311 313 314 314 314 307 312 312 309 307 307 307 306 306 307 307 307 308 309 309 308 308 308 308 309 309 309 309 310 311 311 312 312 313 313 314 314 315 315
313 316 311 311 310 310 311 311 312 309 309 315 312 311 309 308 308 307 306 306 306 306 307 308 308 308 308 307 307 307 307 307 306 307 307 308 309 310 311 312 313 313 313 313
310 313 312 311 311 311 312 311 313 311 312 317 313 305 306 308 307 307 306 306 306 306 307 306 308 308 307 307 306 305 305 305 304 304 304 304 304 305 307 308 309 310 310 310
309 311 314 313 311 310 311 311 311 310 313 312 312 311 306 306 306 306 306 306 305 306 306 307 308 308 307 306 305 305 304 304 304 303 303 303 303 303 303 303 304 305 306 306
310 309 309 304 307 309 311 312 312 311 309 312 311 310 306 306 307 306 305 304 304 303 303 304 307 307 307 306 305 305 304 304 304 303 303 303 302 302 302 302 302 302 302 302
308 307 308 304 308 310 311 311 311 311 306 311 311 310 309 309 307 305 304 303 303 303 302 302 304 306 307 306 306 305 304 304 304 303 303 303 302 302 302 301 301 301 301 301
306 301 303 305 304 308 308 309 310 312 310 308 310 313 311 309 305 305 303 302 303 304 304 303 303 303 305 306 306 305 305 304 304 303 303 303 302 302 301 301 300 300 300 300
303 296 299 296 301 302 304 303 304 306 309 310 310 310 307 304 302 300 302 302 303 303 302 301 301 302 303 304 305 306 305 305 304 303 303 302 302 301 301 301 300 299 299 299
301 293 289 292 298 294 290 297 302 303 303 306 306 304 303 302 301 303 301 302 302 301 300 299 299 301 302 302 303 304 305 305 304 303 302 302 302 301 301 300 299 299 298 298
297 291 286 291 286 289 295 298 299 301 300 300 300 302 299 301 301 300 300 301 300 300 299 298 299 300 300 300 301 301 304 304 303 303 302 302 301 300 299 299 299 299 298 297
299 299 289 290 281 291 297 298 298 299 298 299 299 297 299 300 299 301 300 300 300 299 299 299 298 298 298 299 299 300 302 303 302 302 301 301 301 300 299 298 298 298 297 296
297 300 292 283 289 293 297 300 299 297 296 298 299 300 301 300 298 296 297 298 298 299 299 298 297 297 297 297 297 298 300 301 301 301 300 300 299 299 298 298 297 297 296 295
288 301 295 289 291 295 296 298 297 293 296 299 298 299 299 299 297 297 297 297 298 299 299 298 297 295 295 295 296 297 297 298 299 299 299 298 297 296 296 296 296 295 294 294
294 291 292 292 300 298 297 297 298 296 297 299 299 299 298 298 297 297 296 296 296 297 298 297 296 295 295 294 294 295 295 295 296 296 295 294 294 294 295 295 294 293 293 291
294 295 295 295 296 296 296 297 296 296 297 298 298 297 298 298 297 296 296 295 296 296 296 296 295 294 294 294 294 294 293 293 293 293 293 293 294 294 293 293 294 293 290 289
295 295 296 297 297 297 297 296 296 296 296 296 296 296 296 296 295 294 293 293 294 295 295 296 295 294 293 292 293 293 292 293 292 292 293 292 296 295 293 293 292 290 289 288
295 294 294 295 296 295 295 295 295 295 294 294 294 294 295 295 294 293 293 292 294 295 296 295 295 294 293 292 291 292 293 292 292 292 292 291 291 291 290 289 289 289 289 289
295 296 297 298 296 297 296 296 296 296 295 294 293 294 294 293 293 293 292 294 294 295 296 295 295 294 294 293 293 292 291 293 292 291 290 290 291 290 288 288 287 287 287 286
Wind_Speed
4 5 5 11 11 12 8 8 4 3 5 5 7 6 7 5 0 3 1 7 9 10 11 24 25 27 24 27 26 25 26 25 25 25 25 22 21 20 19 19 18 19 20 19
2 8 4 9 12 13 16 13 6 7 4 4 1 9 4 3 3 4 4 4 7 7 7 11 22 28 26 28 27 26 26 26 26 25 25 24 20 19 19 19 20 19 21 21
4 3 3 6 9 11 14 8 3 1 4 2 3 2 6 3 3 2 6 5 7 2 7 5 8 12 13 13 13 17 22 26 26 25 24 23 19 18 14 15 17 17 18 18
1 5 3 4 4 7 8 3 4 6 4 2 2 0 5 6 6 9 9 9 8 9 8 6 4 7 7 10 10 8 9 12 14 18 17 21 19 16 14 13 15 14 15 15
1 7 4 2 1 5 5 5 5 5 3 1 4 5 6 6 7 7 7 8 8 6 7 8 10 8 6 5 4 6 7 8 8 9 12 12 10 12 11 10 7 9 9 9
0 1 4 3 5 2 9 4 4 4 3 2 8 3 2 2 1 2 4 7 7 8 7 5 5 5 6 5 4 3 3 4 6 10 12 13 12 11 10 10 11 10 10 10
1 2 2 4 3 2 2 2 3 3 2 1 5 2 1 4 6 4 5 6 5 5 6 6 5 3 1 1 3 5 6 5 5 6 6 7 8 9 9 8 7 6 5 6
1 4 3 1 0 4 4 3 3 4 2 3 4 5 4 3 4 4 4 4 5 4 3 3 3 2 2 1 2 4 7 6 5 5 5 5 6 6 5 5 5 5 5 5
4 2 1 3 2 2 4 1 2 5 2 2 2 5 7 3 5 6 8 6 5 4 2 1 2 2 1 1 2 4 6 6 5 5 6 6 5 5 5 5 5 5 5 4
4 1 2 2 3 3 1 4 3 3 3 0 2 3 5 1 5 4 7 7 7 5 2 1 2 3 3 3 3 4 4 6 6 6 6 7 7 6 5 5 6 6 6 6
5 3 2 2 3 1 2 2 4 4 3 2 2 1 4 5 4 6 5 4 4 4 3 3 3 3 5 5 6 6 6 5 6 7 7 7 7 7 7 6 6 5 6 5
2 3 2 1 2 2 1 1 2 3 2 0 2 2 5 5 5 6 6 7 5 4 4 3 4 4 5 6 5 6 7 7 6 6 7 6 6 7 7 7 7 5 5 5
3 0 0 6 5 4 3 3 3 5 3 3 4 3 4 4 7 6 7 7 7 5 6 4 4 5 7 7 6 6 6 7 7 7 8 8 7 7 7 7 6 6 6 6
4 2 1 4 2 2 1 2 3 4 3 1 2 3 1 7 8 6 5 4 6 8 7 7 6 6 8 9 9 8 8 8 8 8 8 7 7 6 6 6 6 6 6 6
2 3 2 4 6 2 1 1 1 3 4 3 4 1 6 7 7 5 4 7 8 8 9 8 8 8 10 9 9 10 10 11 11 11 10 9 8 7 7 7 6 6 6 6
3 0 2 4 6 7 4 6 4 3 3 4 5 6 7 7 5 5 5 7 7 7 7 8 8 13 16 16 13 13 14 14 14 14 13 11 12 12 11 10 9 8 8 8
3 3 3 3 5 4 6 5 4 4 4 4 5 6 3 4 5 2 5 5 5 6 6 7 8 14 19 19 20 18 18 15 16 16 15 16 16 16 15 14 13 10 9 8
2 3 3 2 4 3 7 4 5 5 4 6 6 5 1 2 3 3 5 4 5 5 5 6 12 19 22 23 22 20 18 17 19 19 18 16 15 14 13 14 13 13 12 10
3 3 2 3 3 5 10 3 4 5 6 3 5 7 1 1 2 1 4 3 3 5 8 9 13 16 19 20 20 19 17 17 18 21 20 19 17 16 16 16 16 13 12 12
2 3 4 3 4 5 4 2 3 4 4 4 4 4 4 3 2 4 5 5 8 14 11 15 18 19 18 19 18 18 16 14 17 17 15 14 15 17 18 16 14 11 11 12
2 2 5 3 2 6 9 6 2 5 6 2 4 4 4 2 5 5 6 7 15 17 19 18 20 18 16 15 15 14 13 12 13 11 11 11 11 12 13 12 11 12 14 12
6 6 4 3 2 7 5 4 5 6 3 2 3 2 4 5 7 6 7 8 12 14 16 18 16 15 12 11 11 9 7 6 2 9 12 13 11 9 11 11 13 14 14 15
2 6 5 8 6 5 6 6 8 2 4 4 3 6 3 6 5 7 6 7 11 14 16 14 11 12 10 8 8 5 3 3 6 8 9 9 9 5 5 9 11 13 15 15
3 4 2 2 6 8 7 7 6 5 7 7 7 8 4 7 6 7 7 7 10 14 14 11 9 8 8 5 4 5 3 4 6 8 11 11 9 10 11 8 13 17 15 12
5 5 5 6 6 6 11 9 10 11 7 8 8 5 7 7 8 7 6 8 16 17 16 11 10 9 7 5 3 2 5 4 7 8 9 8 10 11 11 12 13 12 10 10
5 7 4 8 6 4 9 5 4 6 6 8 7 6 7 9 8 9 7 19 18 20 17 12 12 10 7 5 4 5 5 5 5 8 11 13 13 12 12 13 10 9 7 8
Wind_Direction
17 30 75 104 113 104 93 88 64 116 105 209 278 287 266 289 326 130 162 176 169 174 182 185 195 202 197 195 196 198 198 199 201 205 210 214 218 227 237 240 247 247 247 248
24 51 358 54 102 86 87 73 22 336 13 201 236 286 286 200 250 203 150 143 171 144 158 171 185 200 194 191 195 197 203 208 212 215 217 218 225 236 242 245 249 249 249 247
54 118 108 94 99 86 70 66 37 189 230 263 128 276 283 254 227 237 97 84 40 37 140 128 129 149 152 158 177 187 201 209 210 214 216 218 222 229 239 243 248 251 247 248
60 159 149 97 86 124 69 306 347 19 63 192 132 335 11 341 46 32 17 52 40 26 19 34 55 161 158 147 153 162 165 178 186 202 204 216 220 208 227 246 253 250 243 251
292 174 172 9 38 273 131 237 30 22 78 341 27 96 332 342 35 28 25 32 36 38 37 24 29 63 106 124 138 202 218 214 201 198 204 203 207 229 233 222 220 215 212 226
52 224 155 192 156 290 159 167 97 43 71 84 313 44 309 293 100 68 27 29 15 5 24 49 43 72 92 108 138 163 201 211 212 217 221 224 221 215 222 233 245 250 255 252
22 17 13 84 86 326 298 125 57 32 48 153 200 75 300 18 27 30 10 14 6 21 13 18 34 76 78 176 173 171 191 196 196 198 199 205 214 221 229 233 234 238 217 226
127 343 352 287 139 195 212 166 135 142 160 182 168 170 90 82 44 67 75 56 62 64 48 51 42 52 77 144 179 188 197 188 188 191 187 186 191 193 194 201 199 193 191 179
359 53 353 34 332 98 218 121 152 110 29 77 222 111 66 59 72 29 33 43 46 52 53 110 87 97 101 132 144 174 185 178 169 165 162 151 150 151 142 142 155 167 180 183
326 230 360 293 332 338 157 165 75 6 95 88 303 61 125 169 72 51 44 34 11 10 36 230 211 165 150 176 173 164 172 163 159 152 158 146 143 141 136 137 137 139 142 151
334 342 338 70 15 281 33 2 58 105 97 135 127 296 190 148 113 71 53 54 32 6 340 287 252 204 194 198 195 174 178 174 170 170 160 156 146 144 143 139 128 129 129 132
18 340 341 335 280 318 278 71 150 121 216 95 100 193 196 147 87 55 26 12 9 5 343 321 277 242 218 215 214 200 187 191 185 170 163 153 151 148 146 140 135 133 128 123
129 92 293 342 350 357 16 30 97 97 65 197 137 237 171 71 26 23 28 6 354 3 7 335 312 281 279 265 226 217 208 195 187 189 178 172 172 168 154 139 137 137 130 130
121 55 128 178 245 232 183 59 7 96 105 206 223 300 290 335 346 357 347 16 12 9 4 352 337 308 290 278 257 221 213 209 205 204 201 190 188 181 164 153 152 146 139 135
90 121 39 345 344 327 281 226 169 197 205 142 212 238 298 312 302 307 11 21 21 16 8 357 349 334 329 303 275 259 235 222 216 211 216 212 202 196 183 173 165 159 155 150
35 85 64 350 358 359 308 280 267 234 215 223 238 283 242 269 303 11 28 22 26 18 3 349 345 351 347 336 303 276 258 245 230 223 218 212 203 197 190 183 179 174 167 160
73 112 65 283 342 2 337 247 216 218 203 183 218 224 292 310 337 330 6 67 42 358 344 339 332 334 341 339 337 313 279 258 241 233 224 215 204 197 191 185 180 177 173 169
111 80 95 219 21 25 246 299 218 219 270 259 272 261 336 248 328 36 81 55 1 328 324 325 334 336 335 330 323 324 307 269 242 231 225 220 212 202 198 191 183 174 177 181
153 116 45 116 166 287 306 341 152 165 279 201 230 275 298 8 95 327 71 22 316 299 308 312 334 334 330 329 327 320 311 276 256 244 233 218 207 203 201 196 186 173 191 175
72 126 114 59 123 219 250 287 98 80 295 276 155 128 137 72 10 262 309 336 326 322 321 334 337 334 335 334 329 321 312 288 263 254 241 222 211 202 199 192 183 181 194 171
72 174 185 184 215 288 249 238 44 85 245 222 135 149 150 186 209 252 306 322 316 316 320 328 331 334 335 335 332 325 316 300 287 253 208 200 203 199 186 182 168 182 178 166
162 147 198 125 185 271 204 79 172 219 258 207 215 219 219 234 270 265 293 295 304 308 318 323 326 332 339 345 347 341 345 334 226 179 171 163 159 170 177 171 167 177 170 167
214 188 178 179 209 228 221 207 234 189 244 277 269 268 254 270 257 268 270 286 290 301 308 312 317 323 333 351 13 14 47 108 145 156 144 141 129 133 184 173 175 175 183 171
247 199 196 109 240 236 253 279 264 248 243 250 248 255 245 256 273 271 275 278 281 295 302 294 295 301 312 334 18 67 91 135 151 159 160 159 143 176 192 194 202 193 184 181
200 140 181 257 281 281 272 248 257 269 255 260 269 233 240 240 260 248 262 270 275 287 295 271 265 271 280 279 259 145 115 161 170 171 180 168 171 178 183 196 201 200 202 207
186 196 190 250 200 189 258 229 226 245 254 259 251 270 239 227 242 260 261 271 275 281 285 259 250 254 255 253 245 228 189 157 202 221 207 199 196 201 198 193 180 190 199 189